User: anonymous   Login
Location: Unspecified
(0.0000°N, 0.0000°E)
Time: 03:43:59
(UTC+00:00)
Language:

Freja - Orbit

View from above orbital plane
View from above orbital plane
View from above satellite
View from above satellite

Ground track
Ground track

The orbit data is extracted from the following two-line orbital elements,

1 22161U 92064A   19054.02622711 -.00000084  00000-0  12054-4 0  9992
2 22161  62.9826 283.2693 0801415  12.3251 349.6148 13.30337945278384
Epoch (UTC): 23 February 2019 00:37:46
Eccentricity: 0.0801415
inclination: 62.9826°
perigee height: 542 km
apogee height: 1748 km
right ascension of ascending node: 283.2693°
argument of perigee: 12.3251°
revolutions per day: 13.30337945
mean anomaly at epoch: 349.6148°
orbit number at epoch: 27838

The dashed part of the orbit path shows where the satellite is in the earth's shadow,  

DLR